Regional Weather Roundup
Issued by NWS Cleveland, OH

Home | Current Version | Previous Version | Text Only | Print | Product List | Glossary Off
Versions: 1 2 3 4 5 6 7 8 9 10 11 12 13 14 15 16 17 18 19 20 21 22 23 24 25 26 27 28 29 30 31 32 33 34 35 36 37 38 39 40 41 42 43 44 45 46 47 48 49 50

000
ASUS41 KCLE 240112
RWRCLE
OHIO REGIONAL WEATHER ROUNDUP
NATIONAL WEATHER SERVICE WILMINGTON, OH
800 PM EST THU NOV 23 2017

NOTE: "FAIR" INDICATES FEW OR NO CLOUDS BELOW 12,000 FEET WITH NO
SIGNIFICANT WEATHER AND/OR OBSTRUCTIONS TO VISIBILITY.

OHZ001>008-015>018-024>027-034-035-043-044-240200-
   NORTHWEST OHIO

CITY           SKY/WX    TMP DP  RH WIND       PRES   REMARKS
DEFIANCE       FAIR      32  24  72 CALM      29.99R
FINDLAY        FAIR      32  24  72 S7        29.98R WCI  26
TOLEDO EXPRESS FAIR      30  26  85 CALM      29.99R
TOLEDO EXEC    FAIR      32  25  75 S3        30.00S
LIMA           FAIR      35  26  69 S7        29.98S WCI  29
$$

OHZ009>014-019>023-028>033-038-089-240200-
   NORTHEAST OHIO

CITY           SKY/WX    TMP DP  RH WIND       PRES   REMARKS
CLE-HOPKINS    FAIR      36  24  62 S7        30.03R
CLE-LAKEFRONT  MOCLDY    38  23  55 S10       30.00S
CUY CO. ARPT   MOCLDY    39  25  56 S9        30.00S
LORAIN-ELYRIA  FAIR      33  20  58 S7        30.01R WCI  27
ASHTABULA      CLOUDY    37  24  59 SW8       30.00S
AKRON-CANTON   FAIR      32  22  66 S7        30.01R WCI  26
WOOSTER        FAIR      31  23  72 S5        30.01R WCI  26
MANSFIELD      FAIR      33  25  72 S10       29.99R WCI  25
YOUNGSTOWN     CLOUDY    37  22  54 SW9       30.00R
$$

OHZ042-051>053-060>062-070>072-077>081-240200-
  SOUTHWEST OHIO

CITY           SKY/WX    TMP DP  RH WIND       PRES   REMARKS
CINC-COVINGTON FAIR      38  24  57 S5        30.02S
CINC-LUNKEN    FAIR      32  28  85 CALM      30.05S
HAMILTON       FAIR      30  27  88 CALM      30.03S
DAYTON         FAIR      35  25  66 S7        30.01R WCI  29
WRIGHT-PAT AFB FAIR      35  22  61 S5        30.01R
DAYTON GENERAL FAIR      35  23  61 S6        30.01R
WILMINGTON     FAIR      33  26  75 S3        30.02R
$$

OHZ036-037-039>041-045>050-054>059-063>069-073>076-082>088-240200-
  CENTRAL AND SOUTHEAST OHIO

CITY           SKY/WX    TMP DP  RH WIND       PRES   REMARKS
COLUMBUS       FAIR      36  25  64 S5        30.02S
OSU AIRPORT    FAIR      35  27  72 S3        30.02R
BOLTON FIELD   NOT AVBL
RICKENBACK AFB FAIR      33  25  70 CALM      30.03R
NEWARK         FAIR      30  24  78 CALM      30.02S
MARION         FAIR      32  25  75 S5        30.01R WCI  27
LANCASTER      FAIR      29  25  85 CALM      30.03S
ZANESVILLE     FAIR      34  21  59 SE3       30.03S
NEW PHILLY     FAIR      33  23  66 CALM      30.04R
$$




USA.gov is the U.S. government's official web portal to all federal, state and local government web resources and services.